Location: Los Gatos B&B
(42.6926°N, 77.0646°W)
Time: 08:15:30
(UTC-05:00)

Daily predictions for brighter satellites

Satellite Brightness Start Highest point End
(mag) Time Altitude Azimuth Time Altitude Azimuth Time Altitude Azimuth
Tsikada Rocket 4.3 17:25:32 10° S 17:31:56 81° W 17:38:23 10° N
Cosmos 1500 Rocket 3.6 17:34:11 10° S 17:38:26 59° E 17:42:44 10° NNE
Cosmos 540 Rocket 3.8 17:34:40 10° S 17:39:35 47° ESE 17:44:33 10° NNE
USA 215 3.7 17:37:04 10° E 17:43:11 43° NNE 17:49:18 10° NW
Cosmos 2237 Rocket 2.4 17:38:12 10° S 17:43:38 54° ESE 17:49:08 10° NNE
Cosmos 44 Rocket 3.5 17:38:49 10° SSW 17:43:58 87° WNW 17:49:02 10° NNE
Cosmos 2084 3.2 17:40:20 10° SW 17:44:14 81° NW 17:48:03 10° NE
NOSS 0 Rocket 4.0 17:39:26 10° SSW 17:45:36 68° ESE 17:51:47 10° NNE
BREEZE-M DEB (TANK) 3.9 17:39:27 10° NW 17:48:25 56° SW 17:51:40 10° SSE
COSMOS 2428 3.6 17:42:56 10° SW 17:48:28 49° WNW 17:54:01 10° NNE
Cosmos 1300 2.8 17:45:59 10° N 17:49:46 56° E 17:53:32 10° SSE
SL-16 R/B 3.2 17:46:08 10° SSE 17:50:45 27° ESE 17:55:22 10° NE
Cosmos 1340 Rocket 3.7 17:47:40 10° SSE 17:51:03 28° E 17:54:25 10° NNE
Cosmos 1634 Rocket 4.0 17:45:04 10° N 17:51:17 79° E 17:57:27 10° S
SL-14 R/B 3.5 17:48:27 10° S 17:52:15 51° E 17:56:08 10° NNE
Abrixas 2.8 17:50:33 10° SW 17:53:23 50° SSE 17:55:48 13° ENE
Cosmos 1461 4.2 17:50:56 10° SSE 17:54:17 23° ESE 17:57:06 12° ENE
Cosmos 2058 3.3 17:51:06 10° SSE 17:54:57 40° E 17:58:48 10° NNE
Cosmos 1484 Rocket 2.8 17:51:53 10° SSE 17:55:46 62° ENE 17:59:43 10° N
Cosmos 2297 4.1 17:55:41 10° NNW 18:01:07 42° ENE 18:06:32 10° SE
Cosmos 304 Rocket 4.4 17:57:20 10° SSE 18:01:42 35° ESE 18:06:04 10° NE
Lacrosse 5 3.8 18:03:50 10° NW 18:07:08 17° N 18:10:26 10° NNE
Cosmos 1844 Rocket 4.4 18:02:55 10° NW 18:08:04 37° WSW 18:13:11 10° S
Meteor 1-28 Rocket 3.4 18:11:06 10° NNE 18:14:43 48° E 18:18:19 10° S
OTV 4 3.3 18:14:11 10° SW 18:15:45 13° SSW 18:17:19 10° S
Cosmos 1125 Rocket 4.0 18:10:43 10° NNW 18:15:52 62° WSW 18:20:58 10° S
Transit 2A Rocket 4.5 18:11:56 10° NNW 18:16:18 89° WSW 18:20:36 10° SSE
Cosmos 1356 Rocket 4.1 18:13:11 10° SSE 18:16:39 29° E 18:19:09 16° NE
Meteor 2-10 3.9 18:11:53 10° N 18:17:00 77° E 18:22:14 10° SSE
CZ-2C R/B 4.3 18:13:37 10° SSW 18:18:06 33° W 18:22:29 10° NNW
CENTAUR R/B 3.8 18:12:45 10° WSW 18:18:29 36° NW 18:24:55 10° NNE
Cosmos 1707 Rocket 3.9 18:15:09 10° N 18:19:14 40° ENE 18:23:19 10° SSE
COSMO-SKYMED 1 2.5 18:14:53 10° NNE 18:19:15 82° ESE 18:23:35 10° S
YAOGAN 1 4.2 18:15:31 10° SSW 18:19:32 37° W 18:23:35 10° NNW
Thor Agena Rocket 4.4 18:18:43 10° N 18:23:47 51° WNW 18:28:46 10° SW
Spot 2 Rocket 4.4 18:20:20 10° ESE 18:24:29 26° ENE 18:28:38 10° N
Resurs 01 Rocket 2.6 18:26:17 21° E 18:27:53 25° ENE 18:31:32 10° NNE
FENGYUN 3A 4.3 18:23:53 10° SE 18:28:32 32° ENE 18:33:14 10° N
Lacrosse 5 rocket 1.6 18:25:50 10° NW 18:29:35 62° SW 18:33:32 10° SSE
Meteor 1-11 4.3 18:24:43 10° S 18:30:25 85° W 18:36:13 10° N
Cosmos 1666 Rocket 3.9 18:26:26 10° SSE 18:30:31 42° E 18:34:14 12° NNE
Cosmos 1980 4.3 18:26:18 10° SW 18:31:53 58° WNW 18:37:31 10° NNE
Timation 1 Rocket 4.3 18:26:25 10° NNW 18:32:29 82° ENE 18:38:30 10° SSE
METEOR-M 4.1 18:28:23 10° SSE 18:33:40 64° ENE 18:38:58 10° N
Cosmos 1184 Rocket 3.8 18:30:53 10° SSE 18:33:16 28° ESE 18:33:16 28° ESE
Cosmos 1538 Rocket 4.1 18:31:34 10° S 18:36:42 53° ESE 18:40:44 17° NNE
Cosmos 2151 4.0 18:32:57 10° SSW 18:37:00 46° WNW 18:41:04 10° N
Iridium 4 Rocket 3.7 18:35:52 10° SSE 18:39:48 31° E 18:39:48 31° E
Cosmos 2279 Rocket 4.2 18:33:46 10° N 18:39:59 75° W 18:46:11 10° S
ATLAS 5 CENTAUR R/B 4.1 18:38:43 10° N 18:41:17 13° NNE 18:41:50 13° NNE
Cosmos 44 4.4 18:39:29 10° WSW 18:44:29 44° NW 18:48:48 13° NNE
FengYun 1-2 T 4.4 18:41:18 10° SE 18:46:36 48° ENE 18:51:53 10° N
ALOS 2.5 18:42:31 10° SE 18:46:54 43° ENE 18:51:20 10° N
NOAA 12 4.1 18:44:33 10° SSE 18:49:48 86° WSW 18:55:06 10° NNW
Cosmos 2333 Rocket 3.6 18:46:09 10° WSW 18:51:18 36° WNW 18:56:30 10° N
Cosmos 2219 Rocket 4.0 18:47:53 10° WSW 18:52:42 28° NW 18:57:31 10° N
Cosmos 1626 2.0 18:50:53 10° S 18:54:37 87° W 18:56:51 23° N
Cosmos 1603 4.3 18:50:15 10° SSE 18:55:01 32° ESE 18:55:01 32° ESE
SJ-6B 2.9 18:54:43 10° S 18:58:47 81° WSW 19:02:58 10° NNW
Cosmos 2242 Rocket 3.5 18:55:58 10° N 19:00:21 58° E 19:04:43 10° SSE
Nadezhda 4 Rocket 3.9 18:54:19 10° S 19:00:34 81° E 19:06:55 10° N
Aureole 2 Rocket 4.3 18:57:28 10° SW 19:00:55 33° WNW 19:04:26 11° N
Cosmos 2278 Rocket 4.1 18:57:30 10° NW 19:02:24 31° WSW 19:07:17 10° SSW
Cosmos 1703 4.0 18:59:13 10° SSW 19:03:01 52° W 19:06:50 10° N
Cosmos 1455 2.2 19:02:11 10° N 19:05:59 77° W 19:09:46 10° S
Cosmos 1805 Rocket 4.5 19:04:44 10° SSW 19:09:03 49° WNW 19:13:24 10° N
SL-19 R/B 4.2 19:07:26 10° SSE 19:13:20 89° ENE 19:18:59 10° NNW
Lacrosse 4 Rocket 2.3 19:09:37 10° NNW 19:12:10 34° N 19:12:10 34° N
Cosmos 773 Rocket 3.8 19:12:49 10° SSW 19:17:58 82° ESE 19:19:20 50° NNE
FREGAT/IRIS 4.3 19:16:13 10° SSW 19:19:02 34° W 19:21:53 10° NNW
Cosmos 1092 Rocket 3.9 19:14:35 10° S 19:20:55 84° E 19:27:18 10° N
USA 215 3.4 19:21:36 23° SE 19:25:57 71° SW 19:32:31 10° NW
Sich 1 3.9 19:22:08 10° SSW 19:26:26 49° WNW 19:29:41 17° N
Cosmos 2237 Rocket 4.1 19:23:28 10° WSW 19:28:02 25° NW 19:32:39 10° N
ATLAS 3B R/B 4.5 19:25:54 10° NNW 19:29:44 15° NNE 19:29:53 15° NNE
Cosmos 2369 Rocket 3.6 19:26:48 10° N 19:29:27 24° N 19:29:27 24° N
Cosmos 1461 4.1 19:29:25 10° WSW 19:33:15 35° NW 19:33:36 35° NW
Cosmos 1633 Rocket 4.0 19:29:41 10° SSW 19:33:55 46° WNW 19:36:08 25° NNW
SL-16 R/B 3.1 19:29:10 10° SW 19:34:34 46° WNW 19:37:58 22° N
Cosmos 2195 Rocket 4.3 19:40:02 10° S 19:46:08 86° E 19:46:13 85° ENE
Lacrosse 5 4.0 19:48:19 10° NNW 19:50:06 16° NNW 19:50:06 16° NNW
CZ-3A R/B 3.7 19:55:25 10° WNW 19:59:48 47° SW 20:01:31 37° S
Resurs 01 Rocket 3.3 20:03:49 31° WSW 20:04:13 32° W 20:08:13 10° NNW
CZ-4C R/B 4.2 19:59:46 10° NNW 20:03:00 22° N 20:03:00 22° N
USA 229 DEB 3.9 20:05:01 10° SW 20:11:49 64° NW 20:12:13 62° NNW
USA 229 3.9 20:05:06 10° SW 20:11:54 64° NW 20:12:17 63° NNW
ATLAS 5 CENTAUR R/B 4.4 20:22:02 10° NNW 20:23:23 17° NNW 20:23:23 17° NNW
